Location: Oshawa
(43.9000°N, 78.8670°W)
Time: 07:35:29
(UTC-04:00)

SPOT 5 - Visible Passes

Search period start: 25 March 2017 00:00
Search period end: 04 April 2017 00:00
Orbit: 624 x 815 km, 98.4° (Epoch: 23 March)

Date Brightness Start Highest point End Pass type
(mag) Time Alt. Az. Time Alt. Az. Time Alt. Az.
25 Mar 4.6 20:56:29 18° ENE 20:57:32 19° ENE 21:01:08 10° NNE visible
25 Mar 3.5 22:35:43 61° WNW 22:35:43 61° WNW 22:40:22 10° NNW visible
26 Mar 3.5 21:45:02 45° ENE 21:45:09 45° ENE 21:50:12 10° N visible
26 Mar 5.0 23:24:16 25° WNW 23:24:16 25° WNW 23:27:47 10° NW visible
27 Mar 4.6 20:54:20 17° ENE 20:55:38 18° ENE 20:59:08 10° NNE visible
27 Mar 3.3 22:33:35 67° WNW 22:33:35 67° WNW 22:38:27 10° NNW visible
28 Mar 3.5 21:42:54 42° E 21:43:15 43° ENE 21:48:15 10° N visible
28 Mar 4.9 23:22:08 26° W 23:22:08 26° W 23:25:54 10° NW visible
29 Mar 4.7 20:52:14 16° E 20:53:44 17° ENE 20:57:06 10° NNE visible
29 Mar 3.2 22:31:28 73° WNW 22:31:28 73° WNW 22:36:31 10° NNW visible
30 Mar 3.5 21:40:47 40° E 21:41:21 41° ENE 21:46:17 10° N visible
30 Mar 4.7 23:20:01 28° W 23:20:01 28° W 23:24:01 10° NW visible
31 Mar 4.7 20:50:06 14° E 20:51:51 17° ENE 20:55:04 10° NNE visible
31 Mar 3.1 22:29:21 78° W 22:29:21 78° W 22:34:35 10° NNW visible
01 Apr 3.6 21:38:40 37° E 21:39:27 39° ENE 21:44:18 10° N visible
01 Apr 4.6 23:17:54 29° W 23:17:54 29° W 23:22:07 10° NW visible
02 Apr 4.8 20:48:00 13° E 20:49:57 16° ENE 20:53:01 10° NNE visible
02 Apr 3.0 22:27:14 80° SW 22:27:22 81° WSW 22:32:38 10° NNW visible
03 Apr 5.8 00:06:28 10° W 00:06:28 10° W 00:07:09 10° WNW visible
03 Apr 3.7 21:36:33 35° E 21:37:32 38° ENE 21:42:19 10° N visible
03 Apr 4.5 23:15:48 30° W 23:15:48 30° W 23:20:12 10° NW visible
